map of LIL home
Great Circle Mapper logo
LIL - Airport
Location
City:  Lille, Nord-Pas-de-Calais, France
Name:Lesquin
ICAO / IATA:LFQQ / LIL

Details
Type:Airport (Aerodrome, Airfield)
Use:Public/Civil, International (customs port of entry)
Latitude:5033'48"N (50.563333)
Longitude:305'13"E (3.086944)
Elevation:157 ft (48 m)
Variation:0.45E (WMM2015 magnetic declination)
0.14 annual change
Runways:2
Longest:9268 × 148 ft (2825 × 45 m)

Time
Time Zone:UTC+1 (DST+2)
Local Time:

Weather
METAR:LFQQ 140730Z AUTO 31005KT 2600 -DZ BR OVC009 03/02 Q0987
TAF:LFQQ 140500Z 1406/1512 33005KT 6000 OVC008
TEMPO 1406/1411 2000 DZRA OVC004
FM141200 01012KT 9999 BKN018
TEMPO 1412/1421 4000 SHRA BKN013TCU

Related Locations
Nearby:
Farthest:CHT: 11963 mi / 19252 km
Waitangi [Tuuta], Chatham Islands, NZ

Find:

   beyond  
but within

Other Information
Maps:
NOTAMs:
Links:
Sources:

  
flag of France
flag of Nord-Pas-de-Calais
  

Sectional Chart

Flight Planning
at skyvector.com

Satellite Image

Google Maps Satellite view

 

Copyright © 2004-2016 Karl L. Swartz. All rights reserved.
The Great Circle Mapper name and logo are trademarks of the Great Circle Mapper.
All other trademarks mentioned herein belong to their respective owners.
Please see credits for attibutions and further copyright information.

  Follow gcmap on Facebook Follow gcmap on Twitter Follow gcmap on Google+ GCmap on LinkedIn

hCard Microformat

Geo Microformat